| time (UTC) | temp C | wind direction | speed KPH | gust KPH | rain 1hr cm | rain 24hr cm | rain mn cm | humidity % | barometer mb |
| 20260506070503 | 16 | 118 | 1.6 | 6.4 | 0.00 | 0.00 | 0.00 | 63 | 1009.1 |
| 20260506062507 | 16 | 139 | 0.0 | 3.2 | 0.00 | 0.00 | 0.00 | 63 | 1009.6 |
| 20260506062012 | 16 | 198 | 0.0 | 3.2 | 0.00 | 0.00 | 0.00 | 62 | 1009.7 |
| 20260506061534 | 16 | 148 | 1.6 | 3.2 | 0.00 | 0.00 | 0.00 | 62 | 1009.8 |
| 20260506061006 | 16 | 165 | 1.6 | 3.2 | 0.00 | 0.00 | 0.00 | 62 | 1009.9 |
| 20260506060508 | 16 | 155 | 0.0 | 4.8 | 0.00 | 0.00 | 0.00 | 62 | 1009.9 |
| 20260506051011 | 16 | 108 | 1.6 | 3.2 | 0.00 | 0.00 | 0.00 | 60 | 1010.0 |
| 20260506050508 | 16 | 144 | 0.0 | 4.8 | 0.00 | 0.00 | 0.00 | 60 | 1010.1 |
| 20260506045004 | 16 | 140 | 0.0 | 3.2 | 0.00 | 0.00 | 0.00 | 59 | 1010.2 |
| 20260506044512 | 16 | 145 | 0.0 | 3.2 | 0.00 | 0.00 | 0.00 | 58 | 1010.2 |
| 20260506044008 | 16 | 136 | 1.6 | 4.8 | 0.00 | 0.00 | 0.00 | 58 | 1010.1 |
| 20260506043504 | 16 | 143 | 1.6 | 6.4 | 0.00 | 0.00 | 0.00 | 59 | 1010.2 |
| 20260506043015 | 16 | 145 | 1.6 | 6.4 | 0.00 | 0.00 | 0.00 | 58 | 1010.2 |
| 20260506042504 | 16 | 143 | 1.6 | 4.8 | 0.00 | 0.00 | 0.00 | 58 | 1010.1 |
| 20260506042008 | 16 | 141 | 1.6 | 4.8 | 0.00 | 0.00 | 0.00 | 58 | 1010.2 |
| 20260506041517 | 16 | 149 | 1.6 | 4.8 | 0.00 | 0.00 | 0.00 | 57 | 1010.2 |
| 20260506041007 | 16 | 140 | 0.0 | 6.4 | 0.00 | 0.00 | 0.00 | 57 | 1010.3 |
| 20260506040508 | 17 | 150 | 0.0 | 6.4 | 0.00 | 0.00 | 0.00 | 56 | 1010.3 |
| 20260506040026 | 16 | 152 | 1.6 | 6.4 | 0.00 | 0.00 | 0.00 | 57 | 1010.1 |
| 20260506035507 | 16 | 129 | 1.6 | 3.2 | 0.00 | 0.00 | 0.00 | 57 | 1010.2 |
| 20260506035008 | 17 | 108 | 1.6 | 6.4 | 0.00 | 0.00 | 0.00 | 57 | 1010.2 |
| 20260506034526 | 17 | 93 | 1.6 | 6.4 | 0.00 | 0.00 | 0.00 | 56 | 1010.2 |
| 20260506034008 | 17 | 141 | 1.6 | 4.8 | 0.00 | 0.00 | 0.00 | 55 | 1010.3 |
| 20260506033502 | 17 | 160 | 0.0 | 4.8 | 0.00 | 0.00 | 0.00 | 55 | 1010.3 |
| 20260506033015 | 17 | 141 | 1.6 | 4.8 | 0.00 | 0.00 | 0.00 | 54 | 1010.2 |
| 20260506032503 | 17 | 149 | 1.6 | 6.4 | 0.00 | 0.00 | 0.00 | 54 | 1010.2 |
| 20260506032007 | 17 | 148 | 1.6 | 6.4 | 0.00 | 0.00 | 0.00 | 54 | 1010.1 |
| 20260506031521 | 17 | 183 | 1.6 | 4.8 | 0.00 | 0.00 | 0.00 | 54 | 1010.1 |
| 20260506031006 | 17 | 92 | 1.6 | 4.8 | 0.00 | 0.00 | 0.00 | 53 | 1010.1 |
| 20260506030506 | 17 | 161 | 1.6 | 6.4 | 0.00 | 0.00 | 0.00 | 53 | 1010.1 |
| 20260506030017 | 17 | 140 | 3.2 | 6.4 | 0.00 | 0.00 | 0.00 | 52 | 1010.1 |
| 20260506025509 | 17 | 153 | 1.6 | 6.4 | 0.00 | 0.00 | 0.00 | 53 | 1010.1 |
| 20260506025006 | 18 | 59 | 1.6 | 6.4 | 0.00 | 0.00 | 0.00 | 52 | 1010.2 |
| 20260506024536 | 18 | 158 | 3.2 | 6.4 | 0.00 | 0.00 | 0.00 | 51 | 1010.2 |
| 20260506024013 | 18 | 155 | 1.6 | 6.4 | 0.00 | 0.00 | 0.00 | 51 | 1010.2 |
| 20260506023513 | 18 | 150 | 1.6 | 8.0 | 0.00 | 0.00 | 0.00 | 51 | 1010.3 |
| 20260506023027 | 18 | 147 | 3.2 | 8.0 | 0.00 | 0.00 | 0.00 | 51 | 1010.2 |
| 20260506022509 | 18 | 133 | 1.6 | 6.4 | 0.00 | 0.00 | 0.00 | 50 | 1010.3 |
| 20260506022002 | 18 | 121 | 3.2 | 6.4 | 0.00 | 0.00 | 0.00 | 50 | 1010.3 |
| 20260506021511 | 18 | 76 | 1.6 | 8.0 | 0.00 | 0.00 | 0.00 | 50 | 1010.3 |
| 20260506021002 | 18 | 134 | 3.2 | 8.0 | 0.00 | 0.00 | 0.00 | 50 | 1010.3 |
| 20260506020502 | 18 | 50 | 1.6 | 6.4 | 0.00 | 0.00 | 0.00 | 51 | 1010.3 |
| 20260506020014 | 18 | 134 | 1.6 | 6.4 | 0.00 | 0.00 | 0.00 | 51 | 1010.3 |
| 20260506015508 | 18 | 131 | 3.2 | 6.4 | 0.00 | 0.00 | 0.00 | 49 | 1010.3 |
| 20260506015006 | 19 | 137 | 1.6 | 4.8 | 0.00 | 0.00 | 0.00 | 49 | 1010.2 |
| 20260506014522 | 18 | 156 | 1.6 | 4.8 | 0.00 | 0.00 | 0.00 | 49 | 1010.1 |
| 20260506014006 | 19 | 108 | 1.6 | 6.4 | 0.00 | 0.00 | 0.00 | 50 | 1010.1 |
| 20260506013507 | 19 | 131 | 1.6 | 6.4 | 0.00 | 0.00 | 0.00 | 49 | 1010.0 |
| 20260506013027 | 19 | 89 | 1.6 | 6.4 | 0.00 | 0.00 | 0.00 | 49 | 1009.9 |
| 20260506012509 | 19 | 141 | 1.6 | 6.4 | 0.00 | 0.00 | 0.00 | 50 | 1009.9 |
| 20260506012009 | 19 | 148 | 1.6 | 6.4 | 0.00 | 0.00 | 0.00 | 49 | 1009.9 |
| 20260506011555 | 19 | 122 | 1.6 | 4.8 | 0.00 | 0.00 | 0.00 | 47 | 1009.8 |
| 20260506011008 | 20 | 95 | 1.6 | 8.0 | 0.00 | 0.00 | 0.00 | 47 | 1009.8 |
| 20260506010506 | 20 | 127 | 3.2 | 8.0 | 0.00 | 0.00 | 0.00 | 46 | 1009.6 |
| 20260506010010 | 20 | 72 | 3.2 | 6.4 | 0.00 | 0.00 | 0.00 | 46 | 1009.5 |
| 20260506005503 | 20 | 125 | 3.2 | 6.4 | 0.00 | 0.00 | 0.00 | 46 | 1009.5 |
| 20260506005006 | 20 | 146 | 1.6 | 6.4 | 0.00 | 0.00 | 0.00 | 46 | 1009.5 |
| 20260506004519 | 20 | 73 | 3.2 | 6.4 | 0.00 | 0.00 | 0.00 | 45 | 1009.5 |
| 20260506004007 | 20 | 144 | 3.2 | 6.4 | 0.00 | 0.00 | 0.00 | 46 | 1009.4 |
| 20260506003509 | 20 | 138 | 3.2 | 6.4 | 0.00 | 0.00 | 0.00 | 45 | 1009.3 |
| 20260506003022 | 20 | 113 | 3.2 | 6.4 | 0.00 | 0.00 | 0.00 | 44 | 1009.2 |
| 20260506002509 | 20 | 58 | 1.6 | 6.4 | 0.00 | 0.00 | 0.00 | 46 | 1009.3 |
| 20260506002009 | 20 | 174 | 3.2 | 6.4 | 0.00 | 0.00 | 0.00 | 45 | 1009.2 |
| 20260506001524 | 20 | 103 | 1.6 | 4.8 | 0.00 | 0.00 | 0.00 | 46 | 1009.1 |
| 20260506001006 | 20 | 160 | 1.6 | 4.8 | 0.00 | 0.00 | 0.00 | 46 | 1009.1 |
| 20260506000514 | 20 | 148 | 3.2 | 6.4 | 0.00 | 0.00 | 0.00 | 45 | 1009.1 |
| 20260506000045 | 20 | 135 | 1.6 | 6.4 | 0.00 | 0.00 | 0.00 | 45 | 1009.1 |
| 20260505235509 | 20 | 159 | 3.2 | 6.4 | 0.00 | 0.00 | 0.00 | 46 | 1009.1 |
| 20260505235011 | 20 | 143 | 1.6 | 4.8 | 0.00 | 0.00 | 0.00 | 44 | 1009.1 |
| 20260505234526 | 21 | 121 | 3.2 | 4.8 | 0.00 | 0.00 | 0.00 | 45 | 1009.1 |
| 20260505234005 | 20 | 130 | 1.6 | 6.4 | 0.00 | 0.00 | 0.00 | 45 | 1008.9 |
| 20260505233506 | 21 | 115 | 3.2 | 6.4 | 0.00 | 0.00 | 0.00 | 44 | 1008.9 |
| 20260505233017 | 21 | 131 | 1.6 | 6.4 | 0.00 | 0.00 | 0.00 | 45 | 1009.0 |
| 20260505232512 | 21 | 117 | 3.2 | 6.4 | 0.00 | 0.00 | 0.00 | 44 | 1008.9 |
| 20260505232009 | 21 | 146 | 1.6 | 4.8 | 0.00 | 0.00 | 0.00 | 44 | 1008.9 |
| 20260505231521 | 21 | 141 | 1.6 | 4.8 | 0.00 | 0.00 | 0.00 | 44 | 1008.9 |
| 20260505231006 | 20 | 143 | 1.6 | 4.8 | 0.00 | 0.00 | 0.00 | 45 | 1008.9 |
| 20260505230509 | 20 | 144 | 0.0 | 3.2 | 0.00 | 0.00 | 0.00 | 45 | 1008.9 |
| 20260505230047 | 21 | 119 | 1.6 | 4.8 | 0.00 | 0.00 | 0.00 | 44 | 1008.9 |
| 20260505225518 | 21 | 132 | 1.6 | 4.8 | 0.00 | 0.00 | 0.00 | 43 | 1008.9 |
| 20260505225009 | 21 | 134 | 1.6 | 4.8 | 0.00 | 0.00 | 0.00 | 44 | 1008.7 |
| 20260505224536 | 21 | 155 | 1.6 | 6.4 | 0.00 | 0.00 | 0.00 | 42 | 1008.7 |
| 20260505224011 | 21 | 131 | 3.2 | 6.4 | 0.00 | 0.00 | 0.00 | 42 | 1008.7 |
| 20260505223511 | 21 | 141 | 1.6 | 8.0 | 0.00 | 0.00 | 0.00 | 43 | 1008.7 |
| 20260505223016 | 21 | 141 | 1.6 | 8.0 | 0.00 | 0.00 | 0.00 | 42 | 1008.7 |
| 20260505222510 | 21 | 138 | 1.6 | 6.4 | 0.00 | 0.00 | 0.00 | 43 | 1008.7 |
| 20260505222007 | 21 | 145 | 1.6 | 14.5 | 0.00 | 0.00 | 0.00 | 43 | 1008.6 |
| 20260505221521 | 21 | 78 | 3.2 | 14.5 | 0.00 | 0.00 | 0.00 | 41 | 1008.6 |
| 20260505221004 | 21 | 146 | 3.2 | 12.9 | 0.00 | 0.00 | 0.00 | 42 | 1008.6 |
| 20260505220508 | 21 | 96 | 3.2 | 9.7 | 0.00 | 0.00 | 0.00 | 42 | 1008.5 |
| 20260505220019 | 21 | 149 | 3.2 | 9.7 | 0.00 | 0.00 | 0.00 | 43 | 1008.5 |
| 20260505215511 | 21 | 101 | 3.2 | 9.7 | 0.00 | 0.00 | 0.00 | 42 | 1008.5 |
| 20260505215007 | 21 | 141 | 1.6 | 8.0 | 0.00 | 0.00 | 0.00 | 42 | 1008.4 |
| 20260505214529 | 21 | 163 | 4.8 | 8.0 | 0.00 | 0.00 | 0.00 | 42 | 1008.5 |
| 20260505214010 | 21 | 111 | 3.2 | 11.3 | 0.00 | 0.00 | 0.00 | 43 | 1008.5 |
| 20260505213510 | 22 | 138 | 1.6 | 11.3 | 0.00 | 0.00 | 0.00 | 42 | 1008.3 |
| 20260505213026 | 22 | 130 | 3.2 | 9.7 | 0.00 | 0.00 | 0.00 | 41 | 1008.3 |
| 20260505212510 | 22 | 97 | 4.8 | 11.3 | 0.00 | 0.00 | 0.00 | 42 | 1008.3 |
| 20260505212013 | 22 | 149 | 4.8 | 12.9 | 0.00 | 0.00 | 0.00 | 41 | 1008.2 |
| 20260505211529 | 22 | 43 | 3.2 | 12.9 | 0.00 | 0.00 | 0.00 | 43 | 1008.2 |
| 20260505211004 | 22 | 94 | 3.2 | 11.3 | 0.00 | 0.00 | 0.00 | 41 | 1008.2 |
| 20260505210506 | 22 | 128 | 4.8 | 12.9 | 0.00 | 0.00 | 0.00 | 39 | 1008.2 |
| 20260505210023 | 22 | 117 | 4.8 | 12.9 | 0.00 | 0.00 | 0.00 | 38 | 1008.3 |
| 20260505205506 | 22 | 184 | 6.4 | 12.9 | 0.00 | 0.00 | 0.00 | 37 | 1008.1 |
| 20260505205008 | 22 | 139 | 6.4 | 12.9 | 0.00 | 0.00 | 0.00 | 35 | 1008.0 |
| 20260505204523 | 23 | 152 | 4.8 | 11.3 | 0.00 | 0.00 | 0.00 | 36 | 1007.9 |
| 20260505204009 | 23 | 148 | 4.8 | 11.3 | 0.00 | 0.00 | 0.00 | 35 | 1008.2 |
| 20260505203514 | 23 | 181 | 4.8 | 9.7 | 0.00 | 0.00 | 0.00 | 34 | 1008.2 |
| 20260505203026 | 22 | 64 | 3.2 | 9.7 | 0.00 | 0.00 | 0.00 | 36 | 1008.2 |
| 20260505202510 | 23 | 143 | 3.2 | 12.9 | 0.00 | 0.00 | 0.00 | 35 | 1008.2 |
| 20260505202007 | 23 | 177 | 4.8 | 12.9 | 0.00 | 0.00 | 0.00 | 34 | 1008.2 |
| 20260505201531 | 23 | 170 | 4.8 | 11.3 | 0.00 | 0.00 | 0.00 | 36 | 1008.2 |
| 20260505201011 | 23 | 122 | 3.2 | 12.9 | 0.00 | 0.00 | 0.00 | 35 | 1008.1 |
| 20260505200512 | 23 | 193 | 3.2 | 12.9 | 0.00 | 0.00 | 0.00 | 36 | 1008.0 |
| 20260505200026 | 23 | 145 | 3.2 | 8.0 | 0.00 | 0.00 | 0.00 | 35 | 1008.1 |
| 20260505195504 | 23 | 143 | 3.2 | 8.0 | 0.00 | 0.00 | 0.00 | 34 | 1008.2 |
| 20260505195008 | 23 | 136 | 3.2 | 12.9 | 0.00 | 0.00 | 0.00 | 35 | 1008.2 |
| 20260505194526 | 22 | 90 | 4.8 | 12.9 | 0.00 | 0.00 | 0.00 | 36 | 1008.5 |
| 20260505194011 | 23 | 158 | 6.4 | 11.3 | 0.00 | 0.00 | 0.00 | 37 | 1008.5 |
| 20260505193506 | 23 | 142 | 6.4 | 12.9 | 0.00 | 0.00 | 0.00 | 35 | 1008.6 |
| 20260505193025 | 23 | 149 | 3.2 | 12.9 | 0.00 | 0.00 | 0.00 | 34 | 1008.6 |
| 20260505192512 | 23 | 75 | 6.4 | 9.7 | 0.00 | 0.00 | 0.00 | 36 | 1008.7 |
| 20260505192008 | 23 | 129 | 3.2 | 9.7 | 0.00 | 0.00 | 0.00 | 37 | 1008.7 |
| 20260505191527 | 23 | 139 | 4.8 | 12.9 | 0.00 | 0.00 | 0.00 | 35 | 1008.8 |
| 20260505191007 | 23 | 127 | 4.8 | 17.7 | 0.00 | 0.00 | 0.00 | 34 | 1008.8 |
| 20260505190507 | 23 | 171 | 4.8 | 17.7 | 0.00 | 0.00 | 0.00 | 36 | 1008.8 |
| 20260505190036 | 23 | 134 | 3.2 | 9.7 | 0.00 | 0.00 | 0.00 | 39 | 1008.8 |
| 20260505185514 | 23 | 97 | 3.2 | 11.3 | 0.00 | 0.00 | 0.00 | 36 | 1008.9 |
| 20260505185009 | 22 | 146 | 4.8 | 11.3 | 0.00 | 0.00 | 0.00 | 38 | 1008.9 |
| 20260505184533 | 23 | 68 | 4.8 | 11.3 | 0.00 | 0.00 | 0.00 | 36 | 1009.0 |
| 20260505184006 | 23 | 143 | 4.8 | 16.1 | 0.00 | 0.00 | 0.00 | 36 | 1009.2 |
| 20260505183508 | 23 | 68 | 6.4 | 16.1 | 0.00 | 0.00 | 0.00 | 35 | 1009.2 |
| 20260505183021 | 23 | 151 | 4.8 | 11.3 | 0.00 | 0.00 | 0.00 | 38 | 1009.1 |
| 20260505182510 | 23 | 150 | 4.8 | 12.9 | 0.00 | 0.00 | 0.00 | 38 | 1009.0 |
| 20260505182014 | 23 | 76 | 4.8 | 12.9 | 0.00 | 0.00 | 0.00 | 38 | 1009.1 |
| 20260505181526 | 23 | 199 | 3.2 | 9.7 | 0.00 | 0.00 | 0.00 | 40 | 1009.2 |
| 20260505181008 | 23 | 125 | 3.2 | 11.3 | 0.00 | 0.00 | 0.00 | 41 | 1009.2 |
| 20260505180509 | 22 | 129 | 4.8 | 11.3 | 0.00 | 0.00 | 0.00 | 42 | 1009.4 |
| 20260505180037 | 23 | 189 | 3.2 | 9.7 | 0.00 | 0.00 | 0.00 | 41 | 1009.4 |
| 20260505175509 | 23 | 162 | 3.2 | 11.3 | 0.00 | 0.00 | 0.00 | 40 | 1009.5 |
| 20260505175005 | 23 | 132 | 4.8 | 11.3 | 0.00 | 0.00 | 0.00 | 39 | 1009.5 |
| 20260505174514 | 23 | 103 | 4.8 | 9.7 | 0.00 | 0.00 | 0.00 | 41 | 1009.3 |
| 20260505174005 | 23 | 147 | 3.2 | 12.9 | 0.00 | 0.00 | 0.00 | 41 | 1009.5 |
| 20260505173507 | 23 | 207 | 4.8 | 14.5 | 0.00 | 0.00 | 0.00 | 38 | 1009.5 |
| 20260505173018 | 23 | 30 | 6.4 | 14.5 | 0.00 | 0.00 | 0.00 | 38 | 1009.5 |
| 20260505172505 | 23 | 139 | 4.8 | 11.3 | 0.00 | 0.00 | 0.00 | 38 | 1009.4 |
| 20260505172008 | 23 | 148 | 4.8 | 9.7 | 0.00 | 0.00 | 0.00 | 40 | 1009.3 |
| 20260505171524 | 22 | 197 | 4.8 | 9.7 | 0.00 | 0.00 | 0.00 | 42 | 1009.7 |
| 20260505171009 | 23 | 136 | 3.2 | 14.5 | 0.00 | 0.00 | 0.00 | 42 | 1009.7 |
| 20260505170510 | 23 | 210 | 4.8 | 14.5 | 0.00 | 0.00 | 0.00 | 39 | 1009.6 |
| 20260505170026 | 23 | 132 | 4.8 | 11.3 | 0.00 | 0.00 | 0.00 | 40 | 1009.7 |
| 20260505165506 | 22 | 208 | 4.8 | 11.3 | 0.00 | 0.00 | 0.00 | 39 | 1009.7 |
| 20260505165009 | 22 | 86 | 6.4 | 11.3 | 0.00 | 0.00 | 0.00 | 41 | 1009.8 |
| 20260505164528 | 22 | 217 | 4.8 | 9.7 | 0.00 | 0.00 | 0.00 | 44 | 1009.8 |
| 20260505164011 | 22 | 235 | 4.8 | 8.0 | 0.00 | 0.00 | 0.00 | 41 | 1009.8 |
| 20260505163504 | 23 | 103 | 3.2 | 12.9 | 0.00 | 0.00 | 0.00 | 44 | 1010.0 |
| 20260505163017 | 23 | 144 | 3.2 | 12.9 | 0.00 | 0.00 | 0.00 | 43 | 1009.9 |
| 20260505162505 | 23 | 133 | 3.2 | 8.0 | 0.00 | 0.00 | 0.00 | 42 | 1010.0 |
| 20260505162006 | 23 | 153 | 3.2 | 9.7 | 0.00 | 0.00 | 0.00 | 44 | 1010.1 |
| 20260505161520 | 23 | 75 | 3.2 | 9.7 | 0.00 | 0.00 | 0.00 | 44 | 1010.1 |
| 20260505161006 | 22 | 79 | 4.8 | 9.7 | 0.00 | 0.00 | 0.00 | 44 | 1010.3 |
| 20260505160510 | 22 | 60 | 4.8 | 9.7 | 0.00 | 0.00 | 0.00 | 44 | 1010.3 |
| 20260505153028 | 22 | 129 | 3.2 | 8.0 | 0.00 | 0.00 | 0.00 | 48 | 1010.5 |
| 20260505152513 | 22 | 161 | 1.6 | 6.4 | 0.00 | 0.00 | 0.00 | 48 | 1010.6 |
| 20260505152017 | 21 | 141 | 3.2 | 8.0 | 0.00 | 0.00 | 0.00 | 51 | 1010.6 |
| 20260505151516 | 21 | 200 | 3.2 | 8.0 | 0.00 | 0.00 | 0.00 | 50 | 1010.6 |
| 20260505151009 | 21 | 145 | 1.6 | 8.0 | 0.00 | 0.00 | 0.00 | 49 | 1010.7 |
| 20260505150507 | 21 | 204 | 3.2 | 14.5 | 0.00 | 0.00 | 0.00 | 49 | 1010.7 |
| 20260505140510 | 20 | 199 | 3.2 | 8.0 | 0.00 | 0.00 | 0.00 | 50 | 1010.9 |
| 20260505125010 | 17 | 169 | 3.2 | 8.0 | 0.00 | 0.00 | 0.00 | 56 | 1010.7 |
| 20260505124532 | 17 | 176 | 3.2 | 8.0 | 0.00 | 0.00 | 0.00 | 58 | 1010.6 |
| 20260505124006 | 17 | 167 | 3.2 | 6.4 | 0.00 | 0.00 | 0.00 | 59 | 1010.7 |
| 20260505123508 | 17 | 198 | 1.6 | 4.8 | 0.00 | 0.00 | 0.00 | 62 | 1010.7 |
| 20260505123021 | 16 | 212 | 1.6 | 11.3 | 0.00 | 0.00 | 0.00 | 61 | 1010.6 |
| 20260505122510 | 16 | 179 | 3.2 | 11.3 | 0.00 | 0.00 | 0.00 | 61 | 1010.8 |
| 20260505122007 | 16 | 79 | 3.2 | 8.0 | 0.00 | 0.00 | 0.00 | 63 | 1010.8 |
| 20260505121532 | 16 | 221 | 1.6 | 4.8 | 0.00 | 0.00 | 0.00 | 63 | 1010.7 |
| 20260505121007 | 15 | 202 | 1.6 | 4.8 | 0.00 | 0.00 | 0.00 | 67 | 1010.7 |
| 20260505120515 | 15 | 120 | 1.6 | 4.8 | 0.00 | 0.00 | 0.00 | 67 | 1010.7 |
| 20260505120029 | 15 | 216 | 1.6 | 3.2 | 0.00 | 0.00 | 0.00 | 69 | 1010.7 |
| 20260505115511 | 15 | 155 | 1.6 | 4.8 | 0.00 | 0.00 | 0.00 | 67 | 1010.8 |
| 20260505115016 | 15 | 212 | 1.6 | 4.8 | 0.00 | 0.00 | 0.00 | 67 | 1010.8 |
| 20260505114526 | 14 | 207 | 1.6 | 4.8 | 0.00 | 0.00 | 0.00 | 67 | 1010.7 |
| 20260505114012 | 14 | 153 | 1.6 | 4.8 | 0.00 | 0.00 | 0.00 | 68 | 1010.7 |
| 20260505113509 | 14 | 184 | 1.6 | 4.8 | 0.00 | 0.00 | 0.00 | 68 | 1010.6 |
| 20260505113030 | 14 | 94 | 1.6 | 4.8 | 0.00 | 0.00 | 0.00 | 69 | 1010.4 |
| 20260505112507 | 14 | 143 | 1.6 | 4.8 | 0.00 | 0.00 | 0.00 | 68 | 1010.3 |
| 20260505112007 | 13 | 205 | 1.6 | 4.8 | 0.00 | 0.00 | 0.00 | 70 | 1010.3 |
| 20260505111529 | 13 | 138 | 1.6 | 4.8 | 0.00 | 0.00 | 0.00 | 70 | 1010.3 |
| 20260505111006 | 13 | 218 | 1.6 | 4.8 | 0.00 | 0.00 | 0.00 | 69 | 1010.4 |
| 20260505110508 | 13 | 198 | 1.6 | 4.8 | 0.00 | 0.00 | 0.00 | 70 | 1010.4 |
| 20260505102008 | 12 | 213 | 1.6 | 4.8 | 0.00 | 0.00 | 0.00 | 75 | 1010.3 |
| 20260505101528 | 12 | 235 | 1.6 | 4.8 | 0.00 | 0.00 | 0.00 | 75 | 1010.1 |
| 20260505101008 | 12 | 233 | 1.6 | 4.8 | 0.00 | 0.00 | 0.00 | 75 | 1010.0 |
| 20260505100507 | 12 | 219 | 1.6 | 3.2 | 0.00 | 0.00 | 0.00 | 76 | 1009.9 |
| 20260505100033 | 12 | 224 | 1.6 | 3.2 | 0.00 | 0.00 | 0.00 | 78 | 1010.0 |
| 20260505095508 | 11 | 219 | 0.0 | 1.6 | 0.00 | 0.00 | 0.00 | 77 | 1010.0 |
| 20260505095008 | 11 | 141 | 0.0 | 3.2 | 0.00 | 0.00 | 0.00 | 77 | 1010.0 |
| 20260505094524 | 12 | 135 | 0.0 | 3.2 | 0.00 | 0.00 | 0.00 | 76 | 1010.0 |
| 20260505094011 | 12 | 203 | 0.0 | 1.6 | 0.00 | 0.00 | 0.00 | 77 | 1010.0 |
| 20260505093510 | 12 | 217 | 0.0 | 1.6 | 0.00 | 0.00 | 0.00 | 77 | 1009.9 |
| 20260505093030 | 12 | 195 | 0.0 | 3.2 | 0.00 | 0.00 | 0.00 | 77 | 1009.9 |
| 20260505092511 | 12 | 172 | 0.0 | 3.2 | 0.00 | 0.00 | 0.00 | 78 | 1009.8 |
| 20260505092013 | 12 | 152 | 0.0 | 4.8 | 0.00 | 0.00 | 0.00 | 77 | 1009.9 |
| 20260505091533 | 12 | 143 | 1.6 | 4.8 | 0.00 | 0.00 | 0.00 | 77 | 1009.8 |
| 20260505091012 | 12 | 138 | 1.6 | 6.4 | 0.00 | 0.00 | 0.00 | 78 | 1009.3 |
| 20260505090508 | 12 | 168 | 3.2 | 6.4 | 0.00 | 0.00 | 0.00 | 78 | 1009.4 |
| 20260505090021 | 12 | 146 | 1.6 | 8.0 | 0.00 | 0.00 | 0.00 | 78 | 1009.5 |
| 20260505085507 | 12 | 117 | 1.6 | 9.7 | 0.00 | 0.00 | 0.00 | 76 | 1010.0 |
| 20260505085013 | 13 | 170 | 3.2 | 9.7 | 0.00 | 0.00 | 0.00 | 71 | 1009.9 |
| 20260505084526 | 13 | 202 | 3.2 | 6.4 | 0.00 | 0.00 | 0.00 | 67 | 1010.0 |
| 20260505084011 | 13 | 217 | 3.2 | 8.0 | 0.00 | 0.00 | 0.00 | 65 | 1009.9 |
| 20260505083509 | 13 | 236 | 1.6 | 8.0 | 0.00 | 0.00 | 0.00 | 64 | 1009.9 |
| 20260505083009 | 13 | 167 | 1.6 | 8.0 | 0.00 | 0.00 | 0.00 | 65 | 1009.9 |
| 20260505082503 | 13 | 222 | 1.6 | 8.0 | 0.00 | 0.00 | 0.00 | 64 | 1010.1 |
| 20260505082004 | 13 | 219 | 3.2 | 6.4 | 0.00 | 0.00 | 0.00 | 65 | 1009.9 |
| 20260505081515 | 13 | 223 | 1.6 | 6.4 | 0.00 | 0.00 | 0.00 | 65 | 1009.8 |
| 20260505081005 | 12 | 223 | 1.6 | 4.8 | 0.00 | 0.00 | 0.00 | 66 | 1009.7 |
| 20260505080504 | 12 | 198 | 1.6 | 4.8 | 0.00 | 0.00 | 0.00 | 65 | 1009.6 |
| 20260505080018 | 12 | 198 | 1.6 | 4.8 | 0.00 | 0.00 | 0.00 | 66 | 1009.6 |
| 20260505075507 | 12 | 215 | 1.6 | 4.8 | 0.00 | 0.00 | 0.00 | 65 | 1009.7 |
| 20260505075009 | 12 | 190 | 3.2 | 4.8 | 0.00 | 0.00 | 0.00 | 65 | 1009.7 |
| 20260505074526 | 12 | 204 | 1.6 | 4.8 | 0.00 | 0.00 | 0.00 | 65 | 1009.6 |
| 20260505074007 | 12 | 211 | 1.6 | 4.8 | 0.00 | 0.00 | 0.00 | 65 | 1009.7 |
| 20260505073509 | 13 | 213 | 1.6 | 4.8 | 0.00 | 0.00 | 0.00 | 64 | 1009.7 |
| 20260505073026 | 12 | 219 | 1.6 | 4.8 | 0.00 | 0.00 | 0.00 | 64 | 1009.6 |
| 20260505072508 | 13 | 220 | 1.6 | 4.8 | 0.00 | 0.00 | 0.00 | 64 | 1009.7 |
| 20260505072009 | 13 | 207 | 1.6 | 3.2 | 0.00 | 0.00 | 0.00 | 64 | 1009.7 |
| 20260505071512 | 13 | 198 | 0.0 | 3.2 | 0.00 | 0.00 | 0.00 | 64 | 1009.7 |
| 20260505071008 | 13 | 204 | 0.0 | 3.2 | 0.00 | 0.00 | 0.00 | 64 | 1009.7 |